Regional Weather Roundup
Issued by NWS

Home | Current Version | Previous Version | Graphics & Text | Print | Product List | Glossary On
Versions: 1 2 3 4 5 6 7 8 9 10 11 12 13 14 15 16 17 18 19 20 21 22 23 24 25 26 27 28 29 30 31 32 33 34 35 36 37 38 39 40 41 42 43 44 45 46 47 48 49 50
000
ASUS43 KLSX 220210
RWRMO

WEATHER SUMMARY FOR MISSOURI
NATIONAL WEATHER SERVICE SPRINGFIELD MO
900 PM CDT FRI JUL 21 2017

NOTE: "FAIR" INDICATES FEW OR NO CLOUDS BELOW 12,000 FEET WITH NO
       SIGNIFICANT WEATHER AND/OR OBSTRUCTIONS TO VISIBILITY.
       CURRENT SKY AND/OR WEATHER CONDITIONS ARE NOT AVAILABLE FOR
       CHILLICOTHE AND FARMINGTON.

MOZ001>031-035>038-043-044-053-054-220300-
...NORTHERN AND WESTERN MISSOURI...

CITY           SKY/WX    TMP DP  RH WIND       PRES   REMARKS
KANSAS CTY INT PTCLDY    87  73  62 S13       29.81S HX  94
KANSAS C DTWN  CLEAR     92  74  55 S14G26    29.80F HX 101
LEE`S SUMMIT   CLEAR     89  74  60 S16       29.84F HX  98
ST JOSEPH      CLEAR     88  77  69 S10       29.78R HX 100
CHILLICOTHE      N/A     87  78  74 S6        29.82S HX 100
KIRKSVILLE     CLEAR     85  75  72 S9        29.83F HX  93

$$
MOZ066>068-077>081-088>096-101>105-220300-
...SOUTHWEST MISSOURI...

CITY           SKY/WX    TMP DP  RH WIND       PRES   REMARKS
SPRINGFIELD    CLEAR     84  71  65 S8        29.94S
JOPLIN         CLEAR     88  71  57 S10       29.91S HX  94
BRANSON        PTCLDY    84  72  65 S5        29.98R

$$
MOZ032>034-039>042-045>050-055>058-069>072-220300-
...CENTRAL MISSOURI...

CITY           SKY/WX    TMP DP  RH WIND       PRES   REMARKS
COLUMBIA       CLEAR     85  73  67 S7        29.88S HX  91
JEFFERSON CITY CLEAR     89  73  59 CALM      29.86S HX  97
ROLLA          CLEAR     83  70  64 S8        29.92R
SEDALIA        CLEAR     83  73  72 S8        29.88F
WHITEMAN AFB   CLEAR     84  77  79 S10       29.85F HX  93
WARRENSBURG    CLEAR     86  72  62 S8        29.85S HX  92
OSAGE BEACH    CLEAR     90  68  48 SW6       29.91R HX  94

$$
MOZ051-052-059>065-220300-
...EAST CENTRAL MISSOURI...

CITY           SKY/WX    TMP DP  RH WIND       PRES   REMARKS
ST LOUIS INTL  PTCLDY    97  68  38 VRB6      29.88S HX 102
SPIRIT OF STL  PTCLDY    86  76  71 CALM      29.86S HX  96
ST CHARLES     CLEAR     86  76  71 CALM      29.85F HX  96

$$
MOZ072>076-082>087-097>100-106>115-220300-
...SOUTH CENTRAL AND SOUTHEAST MISSOURI...

CITY           SKY/WX    TMP DP  RH WIND       PRES   REMARKS
CAPE GIRARDEAU CLEAR     82  76  81 SW6       29.92R
FARMINGTON     CLEAR     85  75  72 S7        29.96R HX  93
POPLAR BLUFF   CLEAR     86  79  79 S5        29.92S HX  99
WEST PLAINS    CLEAR     86  74  67 S5        29.99R HX  94

$$




USA.gov is the U.S. government's official web portal to all federal, state and local government web resources and services.